Aérodrome :
LOGIN :

S'inscrire | Disclaimer

   EN    FR    IT 

 










Légende :    VFR   VFR Marginal   IFR   IFR Intensif   IFR Très Intensif
Visi : 
Plafond : 
>= 8 km
>= 3000ft
5 à 8 km
1000 à 3000 ft
1500m à 5 km
500 à 1000 ft
800 à 1500m
200 à 500 ft
< 800m
< 200 ft
Symboles :   Orages  Brouillard  Fortes neiges  Fortes précipitations  Vent > 20 kt
SIGMETs :   Divers  Orages  Givrage  Turbulence  Onde Orograph.  Cendres Volcan.







- Altitude de l'aérodrome : 1708 ft
- Code IATA : SJJ


LQSA - Sarajevo

DERNIER METAR :
  • 261630Z 28006KT 230V310 CAVOK 25/06 Q1011 NOSIG

METARs EXPIRÉS :
  • 261600Z 26009KT 230V290 9999 FEW055 25/06 Q1011 NOSIG
  • 261530Z 26009KT 240V300 9999 FEW055 26/06 Q1011 NOSIG
  • 261500Z 27008KT 220V290 9999 FEW055 26/06 Q1011 NOSIG
  • 261430Z 26010KT 210V330 9999 FEW055 26/05 Q1011 NOSIG
  • 261400Z 28007KT 230V030 9999 FEW055 27/05 Q1011 NOSIG

TAF TAF LQSA
Valide du 26 à 12h jusqu'au 27 à 12h UTC


261100Z 2612/2712 30006KT 9999 SCT060 TX28/2613Z TN08/2703Z
TEMPO 2622/2703 3000 RA
PROB30 2703/2707 2000 BR BKN004
Pas de NOTAMs connus pour ce terrain.



MET'MAP, la Météo Aéronautique d'un coup d'oeil ! - Copyright ORBIFLY Décembre 2007 - Disclaimer

ORBIFLY MET'MAP TEAM :

Programmation & Développement : Alexandra Zaïnal
Conception & Développement : Baudouin d'Aumeries
Co-Programmation & Développement : Marc-Olivier Méhu
Soutien technique & logistique : Manuel Goepfert

Contact : metmap@orbifly.com




SOURCES & CREDITS :

   NOAA